Home > Weather > Savannah > Past weeks

Flag for USA Weather for the Past 2 Weeks in Savannah, Georgia, USA

Now
73 °F

Clear.


Feels Like: 71 °F
Forecast: 71 / 83 °F
Wind: 6 mph from Southwest

Location: Savannah International Airport

Current Time: May 3, 2016 at 5:20:41 AM

Latest Report: May 3, 2016 at 4:53 AM


Visibility: 10 mi

Pressure: 29.88 "Hg

Humidity: 90%

Dew Point: 70 °F

Location of SavannahLocation

Historic Weather in Savannah — Graph

°F

Savannah Temperature Yesterday

Maximum temperature yesterday: 87 °F (at 1:53 PM)
Minimum temperature yesterday: 71 °F (at 5:53 AM)
Average temperature yesterday: 76 °F

High & Low Weather Summary for the Past Weeks

 TemperatureHumidityPressure
High93 °F (Apr 29, 3:53 PM)97% (Apr 23, 3:01 AM)30.34 "Hg (Apr 23, 3:01 AM)
Low45 °F (Apr 18, 3:53 AM)18% (Apr 19, 3:53 PM)29.84 "Hg (Apr 23, 4:53 PM)
Average72 °F68%30.03 "Hg
* Reported Apr 18 3:53 AM — May 3 3:53 AM, Savannah, Weather by CustomWeather, © 2016

Note: Actual official high and low records may vary slightly from our data, if they occured in-between our weather recording intervals... More about our weather records

Advertising

Savannah Weather History for the Previous 24 Hours

Scroll right to see more
 ConditionsComfort  
Time TempWeatherWind HumidityBarometerVisibility
3:53 AM
Tue, May 3
73 °FClear.7 mph94%29.88 "Hg10 mi
3:04 AM74 °FPassing clouds.7 mph91%29.89 "Hg10 mi
1:53 AM74 °FPassing clouds.10 mph94%29.92 "Hg10 mi
12:53 AM74 °FClear.8 mph91%29.94 "Hg10 mi
11:53 PM
Mon, May 2
73 °FMostly cloudy.7 mph94%29.97 "Hg8 mi
10:53 PM72 °FPassing clouds.6 mph91%29.98 "Hg10 mi
9:53 PM73 °FMostly cloudy.6 mph94%30.00 "Hg9 mi
8:53 PM72 °FCloudy.No wind93%29.97 "Hg7 mi
7:53 PM75 °FLight rain. Mostly cloudy.No wind88%29.96 "Hg10 mi
6:53 PM76 °FCloudy.6 mph85%29.96 "Hg10 mi
5:53 PM75 °FMostly cloudy.8 mph88%29.94 "Hg10 mi
4:53 PM79 °FMostly cloudy.12 mph82%29.96 "Hg10 mi
4:03 PM78 °FThunderstorms. Mostly cloudy.9 mph84%29.96 "Hg7 mi
2:53 PM87 °FCloudy.3 mph53%29.98 "Hg10 mi
1:53 PM87 °FCloudy.5 mph51%30.01 "Hg10 mi
12:53 PM86 °FBroken clouds.9 mph57%30.02 "Hg10 mi
11:53 AM83 °FBroken clouds.7 mph63%30.05 "Hg10 mi
10:53 AM81 °FBroken clouds.13 mph65%30.06 "Hg10 mi
9:53 AM78 °FBroken clouds.9 mph76%30.06 "Hg10 mi
8:53 AM76 °FBroken clouds.9 mph82%30.06 "Hg10 mi
7:53 AM74 °FBroken clouds.8 mph88%30.04 "Hg10 mi
6:53 AM71 °FPartly cloudy.3 mph90%30.03 "Hg10 mi
5:53 AM71 °FPartly cloudy.3 mph93%30.02 "Hg10 mi
Weather by CustomWeather, © 2016

See weather overviewHow to use our weather pages